Content
SEND FEEDBACK

Daily
Averages
Monthly
Summary
France

LYON, FRANCE


Home > Europe > France
Elevation: 659 feet     Latitude: 45 43N     Longitude: 004 57E

WEATHER
 
SELECT A DAY
Number of Records: 153,989;   Date Range: 7/1/96 - 8/31/14
 
SHARE

PRINT THIS DATA

[ ← Previous Day ]
WEATHER ALMANAC - JANUARY 24, 2013
[ Next Day → ]
[ °C ]   °F
Weather ElementAverageHighLow
Temperature34.6 °F37.4 °F (12:30 am)32 °F (7:00 am)
Dewpoint28.8 °F32 °F (12:30 am)24.8 °F (6:30 pm)
Humidity80.1 %93 % (5:30 am)65 % (6:30 pm)
Barometer29.76 in29.92 in (9:30 pm)29.65 in (2:00 am)
Wind Speed10.3 mph17.3 mph (4:00 pm)
Weather ElementAverage
Visibility5.4 mi
Wind DirectionSSW (185.7 °)

Weather ElementTotal
Precipitation---
Heating Degree Days30.3 (Base 65)
Averaged from 44 records on January 24, 2013
WEATHER CONDITIONS BREAKOUT
WIND DIRECTION BREAKOUT
WEATHER BY HOUR - JANUARY 24, 2013
[ °C ]   °F
Local TimeTemperatureDewpointHumidityBarometerVisibilityWind DirectionWind SpeedGust SpeedPrecipitationEventsConditions
12:30 AM37.4 °F32.0 °F81 %29.71 in6.2 miNNE (20°)4.6 mphOvercast
1:00 AM37.4 °F32.0 °F81 %29.68 in6.2 miNorth (10°)5.8 mphOvercast
1:30 AM37.4 °F32.0 °F81 %29.68 in6.2 miNNE (30°)4.6 mphOvercast
2:00 AM37.4 °F32.0 °F81 %29.65 in6.2 miNNE (30°)5.8 mphOvercast
2:30 AM35.6 °F32.0 °F87 %29.65 in6.2 miNNE (20°)4.6 mphOvercast
3:00 AM35.6 °F32.0 °F87 %29.65 in6.2 miNNE (30°)3.5 mphOvercast
3:30 AM35.6 °F32.0 °F87 %29.65 in6.2 miNNW (340°)3.5 mphMostly Cloudy
4:00 AM35.6 °F32.0 °F87 %29.65 in5.0 miNorth (10°)4.6 mphMostly Cloudy
4:30 AM33.8 °F30.2 °F87 %29.65 in4.3 miNorth (10°)5.8 mphMostly Cloudy
5:00 AM33.8 °F30.2 °F87 %29.68 in4.3 miNNE (20°)6.9 mphMostly Cloudy
5:30 AM33.8 °F32.0 °F93 %29.68 in3.7 miNNE (20°)6.9 mphOvercast
6:00 AM33.8 °F30.2 °F87 %29.68 in3.7 miNNE (20°)8.1 mphOvercast
6:30 AM33.8 °F30.2 °F87 %29.68 inNE (40°)5.8 mphOvercast
7:00 AM32.0 °F30.2 °F93 %29.68 in3.1 miNNE (20°)5.8 mphOvercast
7:30 AM32.0 °F30.2 °F93 %29.71 inNNE (20°)9.2 mphOvercast
8:00 AM32.0 °F30.2 °F93 %29.71 in3.1 miNNE (20°)8.1 mphOvercast
8:30 AM32.0 °F28.4 °F87 %29.71 in3.7 miNorth (10°)10.4 mphOvercast
9:00 AM32.0 °F28.4 °F87 %29.71 in3.7 miNorth (10°)9.2 mphOvercast
9:30 AM32.0 °F30.2 °F93 %29.71 inNNE (20°)9.2 mphOvercast
10:00 AM32.0 °F30.2 °F93 %29.71 in3.7 miNorth (10°)8.1 mphOvercast
12:00 PM32.0 °F30.2 °F93 %29.74 inNorth (10°)10.4 mphOvercast
12:30 PM32.0 °F28.4 °F87 %29.74 in5.0 miNorth (350°)13.8 mphOvercast
1:00 PM33.8 °F30.2 °F87 %29.74 in4.3 miNorth (360°)8.1 mphOvercast
1:30 PM33.8 °F30.2 °F87 %29.74 in5.0 miNorth (360°)10.4 mphOvercast
2:00 PM33.8 °F30.2 °F87 %29.74 in4.3 miNorth (360°)12.7 mphOvercast
2:30 PM35.6 °F30.2 °F81 %29.74 in4.3 miNorth (360°)12.7 mphOvercast
3:00 PM35.6 °F30.2 °F81 %29.77 in6.2 miNorth (360°)12.7 mphOvercast
3:30 PM35.6 °F30.2 °F81 %29.77 in6.2 miNorth (350°)15.0 mphOvercast
4:00 PM35.6 °F28.4 °F75 %29.77 in6.2 miNorth (350°)17.3 mphOvercast
4:30 PM35.6 °F28.4 °F75 %29.80 in6.2 miNorth (350°)13.8 mphOvercast
5:00 PM35.6 °F28.4 °F75 %29.80 in6.2 miNorth (350°)15.0 mphOvercast
5:30 PM35.6 °F26.6 °F70 %29.80 in6.2 miNorth (350°)17.3 mphOvercast
6:00 PM35.6 °F26.6 °F70 %29.83 in6.2 miNorth (350°)15.0 mphOvercast
6:30 PM35.6 °F24.8 °F65 %29.86 in6.2 miNorth (350°)15.0 mphOvercast
7:00 PM35.6 °F24.8 °F65 %29.86 in6.2 miNorth (350°)13.8 mphOvercast
7:30 PM35.6 °F24.8 °F65 %29.86 in6.2 miNorth (350°)11.5 mphOvercast
8:00 PM35.6 °F24.8 °F65 %29.89 in6.2 miNorth (360°)13.8 mphOvercast
8:30 PM35.6 °F24.8 °F65 %29.89 in6.2 miNorth (10°)13.8 mphOvercast
9:00 PM35.6 °F24.8 °F65 %29.89 in6.2 miNorth (360°)11.5 mphOvercast
9:30 PM35.6 °F24.8 °F65 %29.92 in6.2 miNorth (10°)15.0 mphOvercast
10:00 PM35.6 °F24.8 °F65 %29.92 in6.2 miNorth (360°)11.5 mphOvercast
10:30 PM35.6 °F24.8 °F65 %29.92 in6.2 miNorth (350°)15.0 mphOvercast
11:00 PM33.8 °F24.8 °F70 %29.92 in6.2 miNorth (350°)13.8 mphOvercast
11:30 PM33.8 °F24.8 °F70 %29.92 in6.2 miNorth (350°)13.8 mphOvercast
Hourly data recorded from LFLY, located miles away from Lyon, France







STORIES FROM OUR PARTNERS